This is the latest recevied weather packets stored in our database for station/object AD0YN. If no packets are shown the sender has not sent any weather packets the latest 10 day(s).
| Time | Temp. | Humidity | Pressure | Rain* | Wind** | Luminosity | Snow |
|---|---|---|---|---|---|---|---|
| 1777585970 | 18.89° C | 44% | 1014.1 hPa | 0 mm | - | 381 W/m² | - |
| 1777585666 | 18.89° C | 43% | 1014 hPa | 0 mm | - | 427 W/m² | - |
| 1777585361 | 18.33° C | 44% | 1014 hPa | 0 mm | - | 589 W/m² | - |
| 1777585056 | 18.33° C | 44% | 1013.9 hPa | 0 mm | - | 229 W/m² | - |
| 1777584752 | 18.33° C | 45% | 1014 hPa | 0 mm | - | 311 W/m² | - |
| 1777584450 | 17.78° C | 47% | 1014.2 hPa | 0 mm | - | 293 W/m² | - |
| 1777584146 | 17.78° C | 46% | 1014.2 hPa | 0 mm | - | 164 W/m² | - |
| 1777583846 | 18.33° C | 44% | 1014.2 hPa | 0 mm | - | 141 W/m² | - |
| 1777583542 | 18.33° C | 47% | 1014 hPa | 0 mm | - | 115 W/m² | - |
| 1777583241 | 18.89° C | 45% | 1014.1 hPa | 0 mm | - | 180 W/m² | - |
| 1777582935 | 18.89° C | 47% | 1014 hPa | 0 mm | - | 823 W/m² | - |
| 1777582634 | 18.33° C | 49% | 1014.1 hPa | 0 mm | - | 825 W/m² | - |
| 1777582328 | 17.78° C | 51% | 1014.2 hPa | 0 mm | - | 805 W/m² | - |
| 1777582027 | 17.22° C | 51% | 1014.5 hPa | 0 mm | - | 283 W/m² | - |
| 1777581722 | 17.22° C | 53% | 1014.4 hPa | 0 mm | - | 135 W/m² | - |
| 1777581420 | 17.78° C | 53% | 1014.5 hPa | 0 mm | - | 170 W/m² | - |
| 1777581120 | 18.33° C | 52% | 1014.5 hPa | 0 mm | - | 245 W/m² | - |
| 1777580815 | 17.78° C | 50% | 1014.9 hPa | 0 mm | - | 977 W/m² | - |
| 1777580511 | 18.33° C | 48% | 1014.6 hPa | 0 mm | - | 331 W/m² | - |
| 1777580206 | 18.33° C | 50% | 1014.9 hPa | 0 mm | - | 338 W/m² | - |
| 1777579904 | 18.33° C | 50% | 1014.9 hPa | 0 mm | - | 576 W/m² | - |
| 1777579598 | 17.78° C | 48% | 1014.5 hPa | 0 mm | - | 388 W/m² | - |
| 1777579298 | 18.33° C | 47% | 1014.7 hPa | 0 mm | - | 336 W/m² | - |
| 1777578993 | 18.33° C | 46% | 1015 hPa | 0 mm | - | 403 W/m² | - |
| 1777578689 | 17.78° C | 49% | 1014.6 hPa | 0 mm | - | 415 W/m² | - |
* Rain latest hour (hover to see other rain measurements)
** Current wind speed in m/s (hover to see current wind gust speed)